Regional Weather Roundup
Issued by NWS Albany, NY

Home | Current Version | Previous Version | Text Only | Print | Product List | Glossary On
Versions: 1 2 3 4 5 6 7 8 9 10 11 12 13 14 15 16 17 18 19 20 21 22 23 24 25 26 27 28 29 30 31 32 33 34 35 36 37 38 39 40 41 42 43 44 45 46 47 48 49 50
489
ASUS41 KALY 231010
RWRALY

NEW YORK STATE HOURLY WEATHER ROUNDUP
NATIONAL WEATHER SERVICE ALBANY NY
500 AM EST TUE JAN 23 2018

NOTE: "FAIR" INDICATES FEW OR NO CLOUDS BELOW 12,000 FEET WITH NO
SIGNIFICANT WEATHER AND/OR NO OBSTRUCTIONS TO VISIBILITY.

NYZ032-033-038>043-046>054-057>066-NYZ062>081-082-084-231100-
EAST


CITY           SKY/WX    TMP DP  RH WIND       PRES   REMARKS
ALBANY         CLOUDY    39  35  86 S10       29.84F WCI  32
GLENS FALLS    CLOUDY    31  31 100 E3        29.84F FOG
POUGHKEEPSIE   CLOUDY    40  38  93 SE6       29.86F
NEWBURGH       CLOUDY    39  39 100 E3        29.86F FOG
MONTGOMERY     FOG       36  36 100 CALM      29.85F VSB 1/4
WHITE PLAINS   FOG       41  41 100 SE3       29.87F VSB 1/4
ISLIP          MOCLDY    50  49  96 S8        29.89F
NEW YORK CITY  FOG       37  36  96 E7        29.88F VSB<1/4 WCI  32
CENTRAL PARK   FOG       40  39  97 E3        29.89F VSB 1
$$

NYZ005>009-017-018-044>046-055-056-231100-
CENTRAL


CITY           SKY/WX    TMP DP  RH WIND       PRES   REMARKS
FULTON         FAIR      43  39  86 SE9G18    29.60F
SYRACUSE       CLOUDY    44  40  85 SE7G23    29.61F
ROME           LGT RAIN  39  37  92 E14       29.72F WCI  31
ELMIRA         FAIR      44  41  89 CALM      29.62F
BINGHAMTON     MOCLDY    40  38  93 S14       29.65F WCI  32
MONTICELLO     LGT RAIN  38  38 100 E8        29.81F VSB 1/4 WCI  32
$$

NYZ026>034-041>043-087-231100-
NORTH


CITY           SKY/WX    TMP DP  RH WIND       PRES   REMARKS
WATERTOWN      CLOUDY    47  42  83 S16G28    29.56F
FORT DRUM      NOT AVBL
OGDENSBURG     MIX PCPN  31  30  96 E5        29.64F WCI  26
MASSENA        FRZ RAIN  29  29 100 E12       29.69F WCI  19
SARANAC LAKE   CLOUDY    41  36  82 S14       29.68F
PLATTSBURGH    LGT RAIN  39  33  79 S20G31    29.78F WCI  29
$$

NYZ001>004-010>016-019>021-085-231100-
WEST


CITY           SKY/WX    TMP DP  RH WIND       PRES   REMARKS
NIAGARA FALLS  RAIN      46  41  82 S12       29.54F
BUFFALO        RAIN      41  41 100 SW9       29.58R
DUNKIRK        CLOUDY    44  43  96 S6        29.58F
JAMESTOWN      LGT RAIN  41  39  93 SE8       29.58F VSB 1
WELLSVILLE     LGT RAIN  47  43  86 SW14G23   29.60R
ROCHESTER      RAIN      49  44  83 SW24G38   29.59R
PENN YAN       FAIR     N/A N/A N/A CALM      29.58F FOG
$$

             KEY
       WCI = WIND CHILL INDEX
       VSB = VISIBILITY
       HX  = HEAT INDEX
$$




USA.gov is the U.S. government's official web portal to all federal, state and local government web resources and services.